Find Starlink 30888

NORAD ID: 58370 Int'l Des: 2023-177 Owner: SPXS Country: US Constellation: starlink operational
LEOCIRCULAR

当前视图

正在加载3D地球...

About Starlink 30888

Starlink 30888 (NORAD 58370) is a starlink constellation satellite (v2 mini) launched Nov 18, 2023 by SPXS of US. It operates in LEO, CIRCULAR orbit with a mass of 730.00 kg.

关于 Starlink 30888

正在加载描述...

即将过境

Passes for default location (London). Set your location on the main map for personalized predictions.

高度历史

Loading altitude history...

两行轨道根数

1 58370U 23177V 26193.53211376 -.00000343 00000-0 -29058-5 0 9993
2 58370 43.0055 5.2793 0002226 275.1189 84.9409 15.27578810147339
Epoch: Jul 12, 2026 • Age: 9 hours

当前状态

高度 490.2 km
远地点 / 近地点 N/A
速度 7.62 km/s
星下点 -30.32°S, 33.14°W
发射日期 Nov 18, 2023
运行时间 2.6 years
类型 internet

技术详情

分类 Payload
质量 730.00 kg
干质量 700.00 kg
总质量 730.00 kg
长度 0.30 m
直径 4.10 m
跨度 29.00 m
形状 Box + pan
制造商 SPXS
平台类型 Starlink V2M
阶段状态 In Orbit
所有者/国家 SPXS/US

Most Searched